Tracking 28790 objects as of 18-Apr-2024
HD Live streaming from Space Station
objects crossing your sky now

COSMOS 2251 DEB

Track COSMOS 2251 DEB now!
10-day predictions


NORAD ID: 34674
Int'l Code: 1993-036XU
Perigee: 565.1 km
Apogee: 666.5 km
Inclination: 74.0 °
Period: 96.9 minutes
Semi major axis: 6986 km
RCS: 0.0033 m2 (small)
Launch date: June 16, 1993
Source: Commonwealth of Independent States (former USSR) (CIS)
Launch site: PLESETSK MISSILE AND SPACE COMPLEX (PKMTR)

Note: This is SATELLITE DEBRIS
Your satellite tracking list
Your tracking list is empty




NASA's NSSDC Master Catalog

Two Line Element Set (TLE):
1 34674U 93036XU  24109.07941721  .00050952  00000-0  54447-2 0  9999
2 34674  73.9719 269.3184 0072505  10.5520 349.7160 14.86571974804034
Source of the keplerian elements: AFSPC